Weather History for Newport, AR

Change the Weather History Date:

Wednesday, February 26, 2014

  Actual Average (KJBR) Record (KJBR)
Temperature  
Mean Temperature 28 °F 44 °F  
Max Temperature 34 °F 54 °F 80 °F (1917)
Min Temperature 23 °F 35 °F 14 °F (1980)
Degree Days  
Heating Degree Days 36 21  
Month to date heating degree days 619  
Since 1 July heating degree days 2915  
Cooling Degree Days 0 0  
Month to date cooling degree days 0  
Year to date cooling degree days 0  
Moisture  
Dew Point 10 °F    
Average Humidity 48    
Maximum Humidity 72    
Minimum Humidity 24    
Precipitation  
Precipitation 0.00 in 0.13 in 2.00 in (1903)
Month to date precipitation 3.46  
Year to date precipitation 6.89  
Snow  
Snow 0.00 in - 3.00 in (1982)
Month to date snowfall  
Since 1 July snowfall  
Snow Depth -    
Sea Level Pressure  
Sea Level Pressure 30.23 in    
Wind  
Wind Speed 14 mph (NNW)    
Max Wind Speed 18 mph    
Max Gust Speed 21 mph    
Visibility 10 miles    
Events      
T = Trace of Precipitation, MM = Missing Value Source: NWS Daily Summary

Daily Weather History Graph

Daily Weather History Graph

Search for Another Location

Airport:

Trip Planner

Search our weather history database for the weather conditions in past years. The results will help you decide how hot, cold, wet, or windy it might be!

Date:

Astronomy

Feb. 26, 2014 Rise Set
Actual Time 6:38 AM CST 5:57 PM CST
Civil Twilight 6:12 AM CST 6:22 PM CST
Nautical Twilight 5:43 AM CST 6:52 PM CST
Astronomical Twilight 5:13 AM CST 7:22 PM CST
Moon 4:20 AM CST (2/26) 3:15 PM CST (2/26)
Length of Visible Light 12h 10m
Length of Day
11h 18m
Waning Crescent, 10% of the Moon is Illuminated
Feb 26
Waning Crescent
Mar 1
New
Mar 8
First Quarter
Mar 16
Full
Mar 23
Last Quarter

Hourly Weather History & Observations

Time (CST) Temp. Windchill Dew Point Humidity Pressure Visibility Wind Dir Wind Speed Gust Speed Precip Events Conditions
12:56 AM 31.1 °F 20.1 °F 23.0 °F 72% 30.24 in 10.0 mi NE 16.1 mph - N/A   Overcast
1:56 AM 31.1 °F 19.7 °F 18.1 °F 59% 30.28 in 10.0 mi NNE 17.3 mph - N/A   Overcast
2:56 AM 30.0 °F 18.3 °F 16.2 °F 56% 30.29 in 10.0 mi North 17.3 mph - N/A   Overcast
3:56 AM 29.1 °F 16.7 °F 15.1 °F 56% 30.28 in 10.0 mi North 18.4 mph - N/A   Overcast
4:56 AM 27.1 °F 16.4 °F 16.2 °F 63% 30.27 in 10.0 mi North 12.7 mph - N/A   Clear
5:56 AM 25.2 °F 15.1 °F 15.1 °F 66% 30.29 in 10.0 mi North 10.4 mph - N/A   Clear
6:56 AM 23.0 °F 8.7 °F 13.1 °F 66% 30.31 in 10.0 mi North 18.4 mph - N/A   Clear
7:56 AM 24.1 °F 10.6 °F 11.1 °F 58% 30.32 in 10.0 mi North 17.3 mph - N/A   Clear
8:27 AM 23.0 °F 8.7 °F 10.4 °F 59% 30.32 in 10.0 mi North 18.4 mph - N/A   Mostly Cloudy
8:34 AM 23.0 °F 9.6 °F 10.4 °F 59% 30.32 in 10.0 mi North 16.1 mph - N/A   Scattered Clouds
8:56 AM 25.2 °F 12.4 °F 11.1 °F 55% 30.33 in 10.0 mi North 16.1 mph 20.7 mph N/A   Mostly Cloudy
9:56 AM 27.1 °F 15.9 °F 8.1 °F 45% 30.33 in 10.0 mi North 13.8 mph - N/A   Clear
10:56 AM 27.1 °F 15.4 °F 9.1 °F 47% 30.31 in 10.0 mi NNE 15.0 mph - N/A   Clear
11:56 AM 29.1 °F 22.1 °F 9.1 °F 43% 30.29 in 10.0 mi Variable 6.9 mph - N/A   Clear
12:56 PM 32.0 °F 23.6 °F 9.1 °F 38% 30.25 in 10.0 mi North 10.4 mph 18.4 mph N/A   Clear
1:56 PM 32.9 °F 24.1 °F 4.1 °F 30% 30.21 in 10.0 mi NNW 11.5 mph 19.6 mph N/A   Clear
2:56 PM 34.9 °F 28.3 °F 6.1 °F 30% 30.18 in 10.0 mi NNW 8.1 mph - N/A   Clear
3:56 PM 34.9 °F 27.7 °F 3.0 °F 26% 30.14 in 10.0 mi NNW 9.2 mph 17.3 mph N/A   Clear
4:56 PM 34.9 °F 27.7 °F 1.0 °F 24% 30.12 in 10.0 mi NW 9.2 mph - N/A   Clear
5:56 PM 31.1 °F 23.7 °F 3.0 °F 30% 30.12 in 10.0 mi NW 8.1 mph - N/A   Clear
6:56 PM 32.0 °F 28.7 °F 4.1 °F 31% 30.12 in 10.0 mi NW 3.5 mph - N/A   Clear
7:56 PM 30.0 °F 24.1 °F 5.0 °F 35% 30.13 in 10.0 mi West 5.8 mph - N/A   Clear
8:56 PM 29.1 °F 25.4 °F 6.1 °F 38% 30.13 in 10.0 mi West 3.5 mph - N/A   Clear
9:56 PM 28.0 °F 22.8 °F 7.2 °F 41% 30.14 in 10.0 mi WSW 4.6 mph - N/A   Clear
10:56 PM 26.1 °F 19.4 °F 11.1 °F 53% 30.12 in 10.0 mi WSW 5.8 mph - N/A   Clear
11:56 PM 24.1 °F 17.0 °F 11.1 °F 58% 30.11 in 10.0 mi WSW 5.8 mph - N/A   Clear